Погода в Новом Мире

Россия / Хабаровский край     50°27′22″N   136°57′50″E
темп.,
°C
ветер,
м/с
пор.,
м/с
влажн.,
%
обл.,
%
осадки,
мм/ч
давл.,
гПа
погр.,
м
29 июля, чт
чт2901:00+23с2294100 0.2 100038
04:00+22ссз0196100 1.1 100011
07:00+23в119490 0.6 100083
10:00+26ююв2379100 0.8 999468
13:00+32ю3654100 0.1 9981358
16:00+34ю564579 0.2 9961695
19:00+30ссз2268100 0.1 99692
22:00+24ссз358650 0.2 99782
30 июля, пт
пт3001:00+21с71394100 0.6 997423
04:00+18с71595100 2.6 999477
07:00+16с71495100 2.1 1001469
10:00+18с81282100 2.1 1002524
13:00+19с8107486 0.0 1003584
16:00+19с8117122 0.0 1004604
19:00+17с8127731 0.0 1004532
22:00+15с7138158 0.0 1006482
31 июля, сб
сб3101:00+14с71382100 0.0 1007480
04:00+13с71384100 0.0 1007455
07:00+13с71285100 0.0 1007439
10:00+14с71183100 0.0 1008402
13:00+17с797477 0.0 1008531
16:00+17с7973100 0.0 1007540
19:00+13с61189100 0.2 1007350
22:00+12с61295100 1.4 1008387
1 августа, вс
вс101:00+12с61395100 0.4 1008397
04:00+12с71395100 0.4 1007422
07:00+11с61296100 1.1 1007424
10:00+11с61195100 4.5 1008404
13:00+13с61088100 0.1 1007433
16:00+14с71081100 0.1 1007448
19:00+13с71084100 0.0 1006408
22:00+11с61290100 0.0 1006358
2 августа, пн
пн201:00+11с61391100 0.0 1006390
04:00+11с61290100 0.0 1005396
07:00+11с61291100 0.2 1005425
10:00+11с41097100 2.7 1005380
13:00+11с51196100 9.4 1006426
16:00+11с51196100 15.0 1006417
19:00+12с51195100 1.1 1007439
22:00+12с51195100 2.6 1008411